FW5486 Weather Reports


Display with metric or nautical units.
time (UTC)temp
F
wind
direction
speed
MPH
gust
MPH
rain 1hr
in
rain 24hr
in
rain mn
in
humidity
%
barometer
mb
20260502194524 71 240 7.0 16.0 0.00 1.98 0.32 48 1018.7
20260502194024 70 26 7.0 17.0 0.00 2.00 0.32 46 1018.8
20260502193524 70 65 8.0 18.0 0.00 2.02 0.32 47 1018.8
20260502193029 70 38 8.0 21.0 0.00 2.06 0.32 48 1018.8
20260502193023 70 34 8.0 18.0 0.00 2.04 0.32 47 1018.8
20260502192022 70 34 7.0 21.0 0.00 2.08 0.32 46 1018.8
20260502191520 71 41 6.0 19.0 0.00 2.10 0.32 46 1019.0
20260502191021 70 5 7.0 16.0 0.00 2.11 0.32 51 1018.9
20260502190751 70 23 8.0 16.0 0.00 2.14 0.32 48 1018.9
20260502190020 70 65 7.0 18.0 0.00 2.15 0.32 49 1018.9
20260502185522 70 18 7.0 18.0 0.00 2.17 0.32 52 1018.8
20260502185016 70 31 7.0 17.0 0.00 2.19 0.32 49 1018.9
20260502184519 70 316 7.0 17.0 0.00 2.20 0.32 52 1019.0
20260502184017 69 58 7.0 17.0 0.00 2.22 0.32 51 1018.8
20260502183516 69 40 8.0 18.0 0.00 2.24 0.32 49 1018.9
20260502183016 69 30 8.0 20.0 0.00 2.26 0.32 51 1019.1
20260502182518 69 52 6.0 20.0 0.00 2.27 0.32 55 1019.2
20260502182012 69 143 7.0 17.0 0.00 2.29 0.32 57 1019.2
20260502181512 69 355 7.0 21.0 0.00 2.31 0.32 55 1019.3
20260502181013 69 30 6.0 21.0 0.00 2.33 0.32 54 1019.4
20260502180512 69 355 7.0 21.0 0.00 2.34 0.32 56 1019.4
20260502170512 67 22 6.0 19.0 0.00 2.41 0.32 60 1019.7
20260502163957 67 23 7.0 18.0 0.00 2.41 0.32 66 1019.7
20260502163458 66 23 7.0 18.0 0.00 2.41 0.32 68 1019.6
20260502162952 67 14 5.0 18.0 0.00 2.41 0.32 69 1019.6
20260502162449 67 315 3.0 13.0 0.00 2.41 0.32 74 1019.6
20260502162220 66 319 4.0 12.0 0.00 2.41 0.32 72 1019.5
20260502161448 66 27 3.0 12.0 0.00 2.41 0.32 73 1019.7
20260502160947 65 344 4.0 12.0 0.00 2.41 0.32 74 1019.7
20260502160450 65 15 5.0 12.0 0.00 2.41 0.32 75 1019.7
20260502152210 63 96 5.0 9.0 0.01 2.45 0.32 77 1019.5
20260502151439 63 337 5.0 12.0 0.01 2.45 0.32 77 1019.6
20260502150936 63 22 4.0 12.0 0.01 2.45 0.32 79 1019.6
20260502150436 62 338 4.0 10.0 0.01 2.46 0.32 79 1019.5
20260502130414 56 38 3.0 10.0 0.02 2.43 0.29 92 1018.2
20260502130138 55 13 3.0 10.0 0.02 2.43 0.29 93 1017.9
20260502123357 54 11 3.0 10.0 0.02 2.42 0.28 93 1017.3
20260502122858 54 49 2.0 9.0 0.02 2.42 0.28 93 1017.3
20260502122629 53 23 2.0 7.0 0.02 2.42 0.28 93 1017.3
20260502121858 53 5 2.0 7.0 0.03 2.42 0.28 94 1017.3
20260502121354 53 44 2.0 5.0 0.03 2.42 0.28 94 1017.2
20260502120854 53 347 1.0 6.0 0.02 2.41 0.27 94 1017.2
20260502120349 53 315 1.0 6.0 0.02 2.41 0.27 94 1017.1
20260502115847 52 330 1.0 4.0 0.02 2.41 0.27 94 1017.0
20260502115347 52 307 1.0 4.0 0.03 2.41 0.27 94 1017.0
20260502114848 52 26 0.0 2.0 0.03 2.41 0.27 94 1016.9
20260502114349 52 0 0.0 2.0 0.02 2.40 0.27 93 1016.9
20260502113849 52 0 0.0 2.0 0.02 2.40 0.26 93 1016.9
20260502113347 52 9 0.0 2.0 0.03 2.40 0.26 93 1016.8
20260502112847 52 9 1.0 2.0 0.03 2.40 0.26 93 1016.6
20260502112348 52 9 0.0 3.0 0.03 2.40 0.26 93 1016.6
20260502111843 52 16 0.0 3.0 0.02 2.39 0.26 93 1016.4
20260502111343 53 16 1.0 3.0 0.02 2.39 0.25 93 1016.3
20260502110844 53 42 1.0 3.0 0.03 2.39 0.25 93 1016.3
20260502110356 53 355 1.0 3.0 0.03 2.39 0.25 92 1016.4
20260502110114 53 32 1.0 4.0 0.03 2.39 0.25 92 1016.3
20260502105345 53 19 1.0 4.0 0.03 2.38 0.24 92 1016.3
20260502104839 53 79 2.0 4.0 0.03 2.38 0.24 92 1016.2
20260502104340 53 74 3.0 8.0 0.03 2.38 0.24 92 1016.2
20260502103840 53 51 2.0 8.0 0.03 2.38 0.24 92 1016.1
20260502103339 53 79 3.0 8.0 0.03 2.37 0.23 91 1016.1
20260502102842 53 67 3.0 8.0 0.03 2.37 0.23 91 1016.1
20260502102340 53 58 2.0 7.0 0.03 2.37 0.23 91 1016.2
20260502101833 53 84 2.0 6.0 0.04 2.37 0.23 91 1016.2
20260502101333 53 58 3.0 8.0 0.03 2.36 0.22 91 1016.1
20260502100830 53 12 2.0 8.0 0.03 2.36 0.22 91 1016.1
20260502100331 53 102 2.0 6.0 0.03 2.36 0.22 91 1016.1
20260502100104 53 40 2.0 7.0 0.04 2.36 0.22 91 1016.1
20260502091327 53 36 5.0 16.0 0.04 2.35 0.19 91 1015.4
20260502091057 53 19 4.0 16.0 0.04 2.36 0.19 91 1015.6
20260502090320 53 55 4.0 15.0 0.04 2.36 0.19 91 1015.6
20260502071300 53 26 3.0 8.0 0.05 2.36 0.11 94 1015.3
20260502070759 53 47 3.0 10.0 0.04 2.35 0.11 94 1015.5
20260502070252 53 32 3.0 10.0 0.05 2.35 0.10 94 1015.6
20260502065752 53 28 4.0 10.0 0.05 2.35 0.10 93 1015.8
20260502065524 53 47 5.0 12.0 0.04 2.34 0.09 93 1015.9
20260502064755 53 51 4.0 12.0 0.05 2.34 0.09 93 1015.9
20260502064253 53 346 4.0 9.0 0.05 2.34 0.09 94 1015.9
20260502063753 53 44 4.0 10.0 0.05 2.33 0.08 93 1016.0
20260502063247 53 72 3.0 10.0 0.05 2.33 0.08 93 1015.7
20260502062748 54 58 3.0 9.0 0.05 2.32 0.07 93 1015.9
20260502062247 54 17 2.0 7.0 0.05 2.32 0.07 93 1016.0
20260502062018 54 23 2.0 6.0 0.06 2.32 0.07 93 1016.5
20260502061248 54 51 3.0 12.0 0.05 2.31 0.06 93 1016.4
20260502060749 54 85 4.0 12.0 0.06 2.31 0.06 93 1015.6
20260502060240 54 45 4.0 14.0 0.05 2.30 0.05 93 1015.3
20260502055743 54 0 5.0 14.0 0.06 2.30 0.05 93 1015.1
20260502055242 54 80 4.0 11.0 0.06 2.30 0.05 93 1015.0
20260502054741 54 76 4.0 10.0 0.06 2.29 0.04 93 1014.9
20260502054241 54 53 4.0 14.0 0.06 2.29 0.04 93 1015.3
20260502054012 54 69 4.0 14.0 0.06 2.28 0.03 93 1015.0
20260502053236 54 84 4.0 14.0 0.06 2.28 0.03 93 1014.5
20260502052734 54 83 4.0 14.0 0.06 2.27 0.02 93 1014.5
20260502052237 54 95 4.0 12.0 0.06 2.27 0.02 93 1014.7
20260502051737 54 74 5.0 15.0 0.06 2.26 0.02 93 1015.0
20260502051236 54 28 5.0 15.0 0.07 2.26 0.01 93 1015.1
20260502050747 54 56 4.0 15.0 0.06 2.25 0.01 93 1015.1
20260502050229 54 92 5.0 15.0 0.07 2.25 0.00 92 1014.9
20260502045728 54 63 4.0 12.0 0.07 2.24 2.25 92 1015.2
20260502045227 54 65 4.0 12.0 0.07 2.24 2.24 92 1015.5
20260502044733 54 13 4.0 10.0 0.08 2.23 2.23 92 1015.1
20260502044726 54 40 4.0 11.0 0.07 2.23 2.23 92 1015.3
20260502043721 54 36 4.0 13.0 0.07 2.22 2.22 92 1015.2
20260502043223 54 53 5.0 15.0 0.08 2.22 2.22 92 1015.1
20260502042721 54 57 5.0 15.0 0.08 2.21 2.21 92 1015.5
20260502042222 54 30 5.0 15.0 0.09 2.21 2.21 92 1015.2
20260502041720 54 5 5.0 16.0 0.09 2.20 2.20 92 1015.1
20260502041219 55 333 6.0 16.0 0.09 2.19 2.19 92 1015.0
20260502040721 55 41 6.0 16.0 0.09 2.19 2.19 92 1015.2
20260502040219 55 324 5.0 16.0 0.09 2.18 2.18 92 1015.2
20260502035720 55 355 4.0 12.0 0.09 2.17 2.17 92 1015.4
20260502035220 55 11 4.0 13.0 0.10 2.17 2.17 92 1015.2
20260502034720 56 15 4.0 13.0 0.10 2.16 2.16 92 1015.2
20260502034219 56 0 4.0 12.0 0.10 2.15 2.15 92 1015.1
20260502033721 56 9 4.0 14.0 0.11 2.15 2.15 92 1015.0
20260502033215 56 76 4.0 14.0 0.11 2.14 2.14 91 1015.0
20260502032717 56 69 5.0 14.0 0.11 2.13 2.13 91 1014.7
20260502032217 56 65 5.0 14.0 0.11 2.12 2.12 91 1014.3
20260502031715 56 76 5.0 13.0 0.11 2.11 2.11 91 1014.5
20260502031215 56 47 5.0 14.0 0.11 2.10 2.11 91 1014.8
20260502030947 56 56 4.0 14.0 0.13 2.10 2.10 91 1014.9
20260502030212 56 13 5.0 13.0 0.13 2.09 2.09 92 1014.6
20260502025713 56 86 6.0 13.0 0.13 2.08 2.08 92 1014.5
20260502025443 56 42 5.0 12.0 0.13 2.07 2.07 92 1014.4
20260502024711 56 73 5.0 12.0 0.13 2.06 2.06 92 1014.7
20260502024211 56 60 6.0 16.0 0.13 2.05 2.05 92 1014.5
20260502023712 56 86 6.0 16.0 0.13 2.04 2.04 91 1014.4
20260502023212 56 67 5.0 11.0 0.14 2.02 2.02 92 1014.4
20260502023207 56 66 5.0 14.0 0.14 2.03 2.03 92 1014.5
20260502022202 56 88 5.0 14.0 0.14 2.01 2.01 92 1014.5
20260502021702 56 38 6.0 14.0 0.15 2.00 2.00 93 1014.2
20260502021202 56 18 4.0 15.0 0.15 1.99 1.99 93 1014.2
20260502020700 56 92 4.0 15.0 0.14 1.97 1.98 93 1014.2
20260502020200 56 85 5.0 15.0 0.15 1.96 1.97 92 1014.2
20260502015655 56 83 5.0 15.0 0.15 1.95 1.95 92 1014.2
20260502015157 56 76 6.0 16.0 0.16 1.94 1.94 92 1014.0
20260502014928 56 98 6.0 16.0 0.16 1.93 1.93 92 1013.8
20260502014814 56 32 6.0 16.0 0.16 1.92 1.92 92 1013.9
20260502013655 56 49 6.0 16.0 0.17 1.91 1.91 92 1013.7
20260502013428 56 44 5.0 14.0 0.16 1.89 1.89 92 1013.5
20260502012654 56 43 5.0 16.0 0.17 1.88 1.88 93 1013.4
20260502012148 57 74 5.0 16.0 0.17 1.87 1.87 93 1013.0
20260502011647 57 74 5.0 15.0 0.17 1.85 1.85 93 1012.6
20260502011148 57 27 5.0 15.0 0.18 1.84 1.84 94 1012.3
20260502010649 57 76 5.0 15.0 0.18 1.83 1.83 94 1012.0
20260502010149 57 40 5.0 11.0 0.18 1.81 1.81 94 1011.6
20260502005648 57 17 5.0 11.0 0.19 1.80 1.80 94 1011.4
20260502005145 57 355 4.0 16.0 0.19 1.78 1.79 94 1011.3
20260502004915 57 96 5.0 16.0 0.19 1.77 1.77 94 1011.1
20260502004413 57 59 5.0 16.0 0.20 1.76 1.76 94 1010.9
20260502003643 57 29 6.0 16.0 0.20 1.74 1.74 94 1011.1
20260502003143 57 61 7.0 15.0 0.21 1.73 1.73 94 1010.9
20260502002644 57 76 5.0 13.0 0.20 1.71 1.71 94 1011.0
20260502002637 57 26 5.0 11.0 0.21 1.70 1.70 94 1011.2
20260502001911 57 83 5.0 11.0 0.21 1.68 1.68 94 1011.6
20260502001139 57 107 3.0 10.0 0.21 1.66 1.67 94 1011.9
20260502000637 57 56 3.0 10.0 0.22 1.65 1.65 94 1012.2
20260502000406 57 100 3.0 11.0 0.22 1.63 1.63 94 1012.8
20260501235635 57 27 2.0 11.0 0.22 1.61 1.61 94 1013.0
20260501235130 57 49 2.0 5.0 0.22 1.59 1.60 94 1013.2
20260501234630 57 56 3.0 6.0 0.23 1.58 1.58 94 1013.2
20260501234128 57 86 4.0 11.0 0.23 1.56 1.56 94 1013.3
20260501233630 57 73 5.0 11.0 0.23 1.54 1.54 94 1013.3
20260501233130 57 49 5.0 10.0 0.23 1.52 1.52 94 1013.0
20260501232631 57 76 6.0 12.0 0.24 1.51 1.51 94 1013.1
20260501232123 57 173 6.0 12.0 0.24 1.49 1.49 94 1013.3
20260501231624 57 78 6.0 13.0 0.23 1.46 1.47 94 1013.0
20260501231123 57 92 7.0 15.0 0.23 1.44 1.45 94 1012.7
20260501230623 57 98 8.0 15.0 0.24 1.43 1.43 94 1012.2
20260501230125 57 103 7.0 15.0 0.24 1.41 1.41 94 1012.8
20260501225624 57 90 6.0 15.0 0.24 1.40 1.39 94 1012.3
20260501225118 57 82 5.0 13.0 0.24 1.39 1.37 94 1012.1
20260501224851 57 81 7.0 15.0 0.24 1.38 1.35 94 1012.2
20260501224119 57 70 8.0 16.0 0.24 1.37 1.33 94 1011.9
20260501223618 57 83 7.0 16.0 0.24 1.36 1.31 94 1012.2
20260501223119 57 84 5.0 13.0 0.24 1.35 1.29 94 1012.8
20260501222618 57 76 5.0 13.0 0.24 1.34 1.27 94 1013.2
20260501222110 58 68 5.0 18.0 0.24 1.34 1.25 94 1013.4
20260501221611 58 0 4.0 18.0 0.24 1.33 1.23 93 1013.3
20260501221343 58 70 4.0 11.0 0.24 1.33 1.21 94 1013.2
20260501220612 58 60 6.0 11.0 0.24 1.32 1.19 93 1012.9
20260501220342 58 37 6.0 11.0 0.24 1.32 1.17 93 1012.9
20260501215613 58 69 6.0 11.0 0.25 1.32 1.15 93 1012.9
20260501215110 58 105 6.0 14.0 0.25 1.33 1.11 93 1012.8
20260501215106 58 74 6.0 14.0 0.25 1.32 1.13 94 1012.9
20260501214105 58 80 7.0 15.0 0.25 1.33 1.09 94 1013.1
20260501213606 58 84 8.0 20.0 0.25 1.34 1.07 93 1012.9
20260501213108 58 93 7.0 20.0 0.25 1.34 1.05 94 1012.7
20260501212606 58 78 6.0 11.0 0.26 1.35 1.03 94 1012.6
20260501212328 58 62 6.0 18.0 0.26 1.37 1.01 93 1012.6
20260501211601 58 94 7.0 18.0 0.26 1.38 0.99 94 1012.6
20260501211333 57 129 9.0 20.0 0.27 1.40 0.97 93 1012.1
20260501210601 58 67 11.0 20.0 0.26 1.42 0.95 93 1011.7
20260501210331 58 63 10.0 21.0 0.26 1.42 0.92 93 1011.7
20260501205600 58 76 8.0 21.0 0.26 1.45 0.90 93 1011.7
20260501205054 58 88 6.0 16.0 0.26 1.49 0.88 93 1012.3
20260501204553 58 63 5.0 16.0 0.27 1.53 0.86 93 1012.7
20260501204053 58 83 5.0 12.0 0.27 1.56 0.84 93 1012.6
20260501203554 58 65 6.0 16.0 0.26 1.59 0.82 93 1012.6
20260501203052 58 78 7.0 16.0 0.27 1.64 0.80 93 1012.5
20260501202552 58 84 6.0 14.0 0.26 1.68 0.78 93 1012.2
20260501202053 58 39 7.0 17.0 0.25 1.71 0.75 93 1012.3
20260501201553 58 344 6.0 20.0 0.25 1.75 0.73 93 1012.3
20260501201053 58 28 7.0 20.0 0.24 1.77 0.71 93 1012.7
20260501200553 58 64 8.0 20.0 0.25 1.80 0.69 93 1012.9
20260501200049 59 58 7.0 20.0 0.24 1.82 0.66 93 1012.8
20260501195551 59 11 5.0 17.0 0.24 1.85 0.64 93 1012.6
20260501195049 59 87 4.0 13.0 0.23 1.86 0.62 93 1012.9
20260501194548 60 89 6.0 17.0 0.22 1.86 0.59 92 1013.5